Tracking 29777 objects as of 6-Oct-2024
HD Live streaming from Space Station
objects crossing your sky now

COSMOS 839 DEB

Track COSMOS 839 DEB now!
10-day predictions


NORAD ID: 10447
Int'l Code: 1976-067Y
Perigee: 972.9 km
Apogee: 2,080.3 km
Inclination: 65.9 °
Period: 116.4 minutes
Semi major axis: 7897 km
RCS: 0.0759 m2 (small)
Launch date: July 8, 1976
Source: Commonwealth of Independent States (former USSR) (CIS)
Launch site: PLESETSK MISSILE AND SPACE COMPLEX (PKMTR)

Note: This is SATELLITE DEBRIS
Your satellite tracking list
Your tracking list is empty




NASA's NSSDC Master Catalog

Two Line Element Set (TLE):
1 10447U 76067Y   24279.86084045  .00000341  00000-0  13236-2 0  9996
2 10447  65.8631 159.9390 0701111 107.1006 336.6230 12.36965736177634
Source of the keplerian elements: AFSPC